Regional Weather Roundup
Issued by NWS Sioux Falls, SD

Home | Current Version | Previous Version | Graphics & Text | Print | Product List | Glossary On
Versions: 1 2 3 4 5 6 7 8 9 10 11 12 13 14 15 16 17 18 19 20 21 22 23 24 25 26 27 28 29 30 31 32 33 34 35 36 37 38 39 40 41 42 43 44 45 46 47 48 49 50
856
ASUS43 KFSD 280402
RWRFSD

WEATHER ROUNDUP FOR SE SOUTH DAKOTA/SW MINNESOTA/NW IOWA
NATIONAL WEATHER SERVICE SIOUX FALLS SD
1100 PM CDT TUE SEP 27 2016

NOTE: "FAIR" INDICATES FEW OR NO CLOUDS BELOW 12,000 FEET WITH NO
SIGNIFICANT WEATHER AND OR OBSTRUCTIONS TO VISIBILITY.


SDZ038>040-050-052>070-280500-
SOUTHEAST SOUTH DAKOTA

CITY           SKY/WX    TMP DP  RH WIND       PRES   REMARKS
CHAMBERLAIN    CLEAR     62  43  51 NE6       29.97S
HURON          CLEAR     50  39  66 N6        29.96R
MADISON        FAIR      46  36  66 N10       29.95R
MITCHELL       CLEAR     51  41  68 NW7       29.95R
SIOUX FALLS    CLEAR     54  37  52 N9        29.92R
WINNER         FAIR      61  43  51 E5        29.99R
YANKTON        CLEAR     54  45  71 NW8       29.91R
$$

MNZ071-072-080-081-089-090-097-098-280500-
SOUTHWEST MINNESOTA

CITY           SKY/WX    TMP DP  RH WIND       PRES   REMARKS
FAIRMONT       CLOUDY    52  44  74 N10G20    29.91R
JACKSON        CLOUDY    54  41  62 NE8       29.91R
LUVERNE        CLEAR     54  32  43 NE8       29.92R
MARSHALL       CLOUDY    54  43  66 NE10      29.95R
MONTEVIDEO     CLOUDY    54  45  71 NE8       29.97R
PIPESTONE      CLEAR     52  34  50 NE7       29.93R
REDWOOD FALLS  CLOUDY    53  43  68 N9G20     29.93R
TRACY          CLOUDY    55  45  69 NE14G20   29.94R
WINDOM         CLOUDY    54  43  66 N12       29.92R
WORTHINGTON    CLOUDY    53  39  59 N8        29.92R
$$

IAZ001>003-012>014-020>022-031-032-NEZ013-014-SDZ071-280500-
NORTHWEST IOWA

CITY           SKY/WX    TMP DP  RH WIND       PRES   REMARKS
CHEROKEE       CLEAR     52  44  74 NE6       29.88R
DENISON        CLEAR     54  48  82 CALM      29.86R
ESTHERVILLE    CLOUDY    51  44  77 N9        29.90R
LE MARS        CLEAR     55  45  67 CALM      29.91R
ORANGE CITY    CLEAR     57  39  51 N9        29.90R
SHELDON        CLEAR     46  43  87 N6        29.89R
SIOUX CITY     CLEAR     54  48  80 NW3       29.89R
SPENCER        CLOUDY    57  40  52 N9        29.90R
STORM LAKE     CLEAR     55  41  58 N8        29.88R
$$

ABBREVIATIONS USED IN REMARKS
   TC - TEMPERATURE IN CELSIUS
  WCI - WIND CHILL INDEX
   HX - HEAT INDEX
  VSB - VISIBILITY





USA.gov is the U.S. government's official web portal to all federal, state and local government web resources and services.